Time,TemperatureF,DewpointF,PressureIn,WindDirection,WindDirectionDegrees,WindSpeedMPH,WindSpeedGustMPH,Humidity,HourlyPrecipIn,Conditions,Clouds,dailyrainin,SolarRadiationWatts/m^2,SoftwareType,DateUTC
2013-03-15 00:22:00,14.0,10.0,-100.00,NNW,338,1.0,9.0,85,0.00,,,0.00,0.000000,,2013-03-15 08:22:00,
2013-03-15 00:32:00,14.0,10.0,-100.00,NNW,338,1.0,9.0,85,0.00,,,0.00,0.000000,,2013-03-15 08:32:00,
2013-03-15 00:42:00,14.0,10.0,-100.00,NNW,338,1.0,9.0,85,0.00,,,0.00,0.000000,,2013-03-15 08:42:00,
2013-03-15 00:52:00,14.0,10.0,-100.00,NNW,338,1.0,9.0,85,0.00,,,0.00,0.000000,,2013-03-15 08:52:00,
2013-03-15 01:12:00,14.0,10.0,-100.00,NNE,26,1.0,6.0,82,0.00,,,0.00,0.000000,,2013-03-15 09:12:00,
2013-03-15 01:22:00,14.0,10.0,-100.00,NNE,26,1.0,6.0,82,0.00,,,0.00,0.000000,,2013-03-15 09:22:00,
2013-03-15 01:33:00,14.0,10.0,-100.00,NNE,26,1.0,6.0,82,0.00,,,0.00,0.000000,,2013-03-15 09:33:00,
2013-03-15 01:42:00,14.0,10.0,-100.00,NNE,26,1.0,6.0,82,0.00,,,0.00,0.000000,,2013-03-15 09:42:00,
2013-03-15 01:52:00,14.0,10.0,-100.00,NNE,26,1.0,6.0,82,0.00,,,0.00,0.000000,,2013-03-15 09:52:00,
2013-03-15 02:12:00,13.0,9.0,-100.00,North,11,1.0,6.0,82,0.00,,,0.00,0.000000,,2013-03-15 10:12:00,
2013-03-15 02:23:00,13.0,9.0,-100.00,North,11,1.0,6.0,82,0.00,,,0.00,0.000000,,2013-03-15 10:23:00,
2013-03-15 02:32:00,13.0,9.0,-100.00,North,11,1.0,6.0,82,0.00,,,0.00,0.000000,,2013-03-15 10:32:00,
2013-03-15 02:42:00,13.0,9.0,-100.00,North,11,1.0,6.0,82,0.00,,,0.00,0.000000,,2013-03-15 10:42:00,
2013-03-15 02:51:00,13.0,9.0,-100.00,North,11,1.0,6.0,82,0.00,,,0.00,0.000000,,2013-03-15 10:51:00,
2013-03-15 03:22:00,12.0,8.0,-100.00,NNE,15,1.0,6.0,83,0.00,,,0.00,0.000000,,2013-03-15 11:22:00,
2013-03-15 03:32:00,12.0,8.0,-100.00,NNE,15,1.0,6.0,83,0.00,,,0.00,0.000000,,2013-03-15 11:32:00,
2013-03-15 03:42:00,12.0,8.0,-100.00,NNE,15,1.0,6.0,83,0.00,,,0.00,0.000000,,2013-03-15 11:42:00,
2013-03-15 03:52:00,12.0,8.0,-100.00,NNE,15,1.0,6.0,83,0.00,,,0.00,0.000000,,2013-03-15 11:52:00,
2013-03-15 04:12:00,11.0,7.0,-100.00,NNE,23,2.0,5.0,85,0.00,,,0.00,0.000000,,2013-03-15 12:12:00,
2013-03-15 04:22:00,11.0,7.0,-100.00,NNE,23,2.0,5.0,85,0.00,,,0.00,0.000000,,2013-03-15 12:22:00,
2013-03-15 04:32:00,11.0,7.0,-100.00,NNE,23,2.0,5.0,85,0.00,,,0.00,0.000000,,2013-03-15 12:32:00,
2013-03-15 04:42:00,11.0,7.0,-100.00,NNE,23,2.0,5.0,85,0.00,,,0.00,0.000000,,2013-03-15 12:42:00,
2013-03-15 04:51:00,11.0,7.0,-100.00,NNE,23,2.0,5.0,85,0.00,,,0.00,0.000000,,2013-03-15 12:51:00,
2013-03-15 05:12:00,11.0,8.0,-100.00,WNW,301,0.0,5.0,86,0.00,,,0.00,0.000000,,2013-03-15 13:12:00,
2013-03-15 05:22:00,11.0,8.0,-100.00,WNW,301,0.0,5.0,86,0.00,,,0.00,0.000000,,2013-03-15 13:22:00,
2013-03-15 05:32:00,11.0,8.0,-100.00,WNW,301,0.0,5.0,86,0.00,,,0.00,0.000000,,2013-03-15 13:32:00,
2013-03-15 05:42:00,11.0,8.0,-100.00,WNW,301,0.0,5.0,86,0.00,,,0.00,0.000000,,2013-03-15 13:42:00,
2013-03-15 05:52:00,11.0,8.0,-100.00,WNW,301,0.0,5.0,86,0.00,,,0.00,0.000000,,2013-03-15 13:52:00,
2013-03-15 06:12:00,9.0,6.0,-100.00,North,5,1.0,4.0,89,0.00,,,0.00,0.000000,,2013-03-15 14:12:00,
2013-03-15 06:22:00,9.0,6.0,-100.00,North,5,1.0,4.0,89,0.00,,,0.00,0.000000,,2013-03-15 14:22:00,
2013-03-15 06:32:00,9.0,6.0,-100.00,North,5,1.0,4.0,89,0.00,,,0.00,0.000000,,2013-03-15 14:32:00,
2013-03-15 06:42:00,9.0,6.0,-100.00,North,5,1.0,4.0,89,0.00,,,0.00,0.000000,,2013-03-15 14:42:00,
2013-03-15 06:51:00,9.0,6.0,-100.00,North,5,1.0,4.0,89,0.00,,,0.00,0.000000,,2013-03-15 14:51:00,
2013-03-15 07:12:00,7.0,5.0,-100.00,NE,46,0.0,4.0,91,0.00,,,0.00,0.000000,,2013-03-15 15:12:00,
2013-03-15 07:22:00,7.0,5.0,-100.00,NE,46,0.0,4.0,91,0.00,,,0.00,0.000000,,2013-03-15 15:22:00,
2013-03-15 07:33:00,7.0,5.0,-100.00,NE,46,0.0,4.0,91,0.00,,,0.00,0.000000,,2013-03-15 15:33:00,
2013-03-15 07:42:00,7.0,5.0,-100.00,NE,46,0.0,4.0,91,0.00,,,0.00,0.000000,,2013-03-15 15:42:00,
2013-03-15 07:52:00,7.0,5.0,-100.00,NE,46,0.0,4.0,91,0.00,,,0.00,0.000000,,2013-03-15 15:52:00,
2013-03-15 08:22:00,6.0,5.0,-100.00,NW,321,1.0,3.0,95,0.00,,,0.00,0.000000,,2013-03-15 16:22:00,
2013-03-15 08:32:00,6.0,5.0,-100.00,NW,321,1.0,3.0,95,0.00,,,0.00,0.000000,,2013-03-15 16:32:00,
2013-03-15 08:42:00,6.0,5.0,-100.00,NW,321,1.0,3.0,95,0.00,,,0.00,0.000000,,2013-03-15 16:42:00,
2013-03-15 08:52:00,6.0,5.0,-100.00,NW,321,1.0,3.0,95,0.00,,,0.00,0.000000,,2013-03-15 16:52:00,
2013-03-15 09:22:00,7.0,5.0,-100.00,NNW,340,1.0,4.0,93,0.00,,,0.00,7.000000,,2013-03-15 17:22:00,
2013-03-15 09:32:00,7.0,5.0,-100.00,NNW,340,1.0,4.0,93,0.00,,,0.00,7.000000,,2013-03-15 17:32:00,
2013-03-15 09:42:00,7.0,5.0,-100.00,NNW,340,1.0,4.0,93,0.00,,,0.00,7.000000,,2013-03-15 17:42:00,
2013-03-15 09:52:00,7.0,5.0,-100.00,NNW,340,1.0,4.0,93,0.00,,,0.00,7.000000,,2013-03-15 17:52:00,
2013-03-15 10:12:00,11.0,9.0,-100.00,NNE,13,2.0,6.0,90,0.00,,,0.00,42.000000,,2013-03-15 18:12:00,
2013-03-15 10:22:00,11.0,9.0,-100.00,NNE,13,2.0,6.0,90,0.00,,,0.00,42.000000,,2013-03-15 18:22:00,
2013-03-15 10:32:00,11.0,9.0,-100.00,NNE,13,2.0,6.0,90,0.00,,,0.00,42.000000,,2013-03-15 18:32:00,
2013-03-15 10:42:00,11.0,9.0,-100.00,NNE,13,2.0,6.0,90,0.00,,,0.00,42.000000,,2013-03-15 18:42:00,
2013-03-15 10:52:00,11.0,9.0,-100.00,NNE,13,2.0,6.0,90,0.00,,,0.00,42.000000,,2013-03-15 18:52:00,
2013-03-15 11:22:00,21.0,13.0,-100.00,NNE,24,1.0,6.0,71,0.00,,,0.00,126.000000,,2013-03-15 19:22:00,
2013-03-15 11:32:00,21.0,13.0,-100.00,NNE,24,1.0,6.0,71,0.00,,,0.00,126.000000,,2013-03-15 19:32:00,
2013-03-15 11:42:00,21.0,13.0,-100.00,NNE,24,1.0,6.0,71,0.00,,,0.00,126.000000,,2013-03-15 19:42:00,
2013-03-15 11:52:00,21.0,13.0,-100.00,NNE,24,1.0,6.0,71,0.00,,,0.00,126.000000,,2013-03-15 19:52:00,
2013-03-15 12:12:00,29.0,9.0,-100.00,NNE,17,2.0,6.0,42,0.00,,,-99.99,333.000000,,2013-03-15 20:12:00,
2013-03-15 12:42:00,29.0,9.0,-100.00,NNE,17,2.0,6.0,42,0.00,,,-99.99,333.000000,,2013-03-15 20:42:00,
2013-03-15 12:51:00,29.0,9.0,-100.00,NNE,17,2.0,6.0,42,0.00,,,-99.99,333.000000,,2013-03-15 20:51:00,
2013-03-15 13:22:00,34.0,6.0,-100.00,NE,35,2.0,7.0,30,0.00,,,0.00,504.000000,,2013-03-15 21:22:00,
2013-03-15 13:32:00,34.0,6.0,-100.00,NE,35,2.0,7.0,30,0.00,,,0.00,504.000000,,2013-03-15 21:32:00,
2013-03-15 13:42:00,34.0,6.0,-100.00,NE,35,2.0,7.0,30,0.00,,,0.00,504.000000,,2013-03-15 21:42:00,
2013-03-15 13:52:00,34.0,6.0,-100.00,NE,35,2.0,7.0,30,0.00,,,0.00,504.000000,,2013-03-15 21:52:00,
2013-03-15 14:22:00,36.0,10.0,-100.00,ESE,108,1.0,6.0,34,0.00,,,0.00,563.000000,,2013-03-15 22:22:00,
2013-03-15 14:32:00,36.0,10.0,-100.00,ESE,108,1.0,6.0,34,0.00,,,0.00,563.000000,,2013-03-15 22:32:00,
2013-03-15 14:42:00,36.0,10.0,-100.00,ESE,108,1.0,6.0,34,0.00,,,0.00,563.000000,,2013-03-15 22:42:00,
2013-03-15 14:52:00,36.0,10.0,-100.00,ESE,108,1.0,6.0,34,0.00,,,0.00,563.000000,,2013-03-15 22:52:00,
2013-03-15 15:22:00,38.0,6.0,-100.00,North,3,3.0,6.0,26,0.00,,,0.00,583.000000,,2013-03-15 23:22:00,
2013-03-15 15:32:00,38.0,6.0,-100.00,North,3,3.0,6.0,26,0.00,,,0.00,583.000000,,2013-03-15 23:32:00,
2013-03-15 15:42:00,38.0,6.0,-100.00,North,3,3.0,6.0,26,0.00,,,0.00,583.000000,,2013-03-15 23:42:00,
2013-03-15 15:52:00,38.0,6.0,-100.00,North,3,3.0,6.0,26,0.00,,,0.00,583.000000,,2013-03-15 23:52:00,
2013-03-15 16:12:00,39.0,3.0,-100.00,NNE,22,2.0,6.0,22,0.00,,,-99.99,550.000000,,2013-03-16 00:12:00,
2013-03-15 16:22:00,39.0,3.0,-100.00,NNE,22,2.0,6.0,22,0.00,,,-99.99,550.000000,,2013-03-16 00:22:00,
2013-03-15 16:32:00,39.0,3.0,-100.00,NNE,22,2.0,6.0,22,0.00,,,-99.99,550.000000,,2013-03-16 00:32:00,
2013-03-15 16:42:00,39.0,3.0,-100.00,NNE,22,2.0,6.0,22,0.00,,,-99.99,550.000000,,2013-03-16 00:42:00,
2013-03-15 16:52:00,39.0,3.0,-100.00,NNE,22,2.0,6.0,22,0.00,,,-99.99,550.000000,,2013-03-16 00:52:00,
2013-03-15 17:12:00,38.0,4.0,-100.00,NNE,17,2.0,6.0,23,0.00,,,0.00,470.000000,,2013-03-16 01:12:00,
2013-03-15 17:21:00,38.0,4.0,-100.00,NNE,17,2.0,6.0,23,0.00,,,0.00,470.000000,,2013-03-16 01:21:00,
2013-03-15 17:32:00,38.0,4.0,-100.00,NNE,17,2.0,6.0,23,0.00,,,0.00,470.000000,,2013-03-16 01:32:00,
2013-03-15 17:42:00,38.0,4.0,-100.00,NNE,17,2.0,6.0,23,0.00,,,0.00,470.000000,,2013-03-16 01:42:00,
2013-03-15 17:52:00,38.0,4.0,-100.00,NNE,17,2.0,6.0,23,0.00,,,0.00,470.000000,,2013-03-16 01:52:00,
2013-03-15 18:12:00,39.0,7.0,-100.00,NNW,337,1.0,6.0,26,0.00,,,0.00,360.000000,,2013-03-16 02:12:00,
2013-03-15 18:22:00,39.0,7.0,-100.00,NNW,337,1.0,6.0,26,0.00,,,0.00,360.000000,,2013-03-16 02:22:00,
2013-03-15 18:32:00,39.0,7.0,-100.00,NNW,337,1.0,6.0,26,0.00,,,0.00,360.000000,,2013-03-16 02:32:00,
2013-03-15 18:42:00,39.0,7.0,-100.00,NNW,337,1.0,6.0,26,0.00,,,0.00,360.000000,,2013-03-16 02:42:00,
2013-03-15 18:51:00,39.0,7.0,-100.00,NNW,337,1.0,6.0,26,0.00,,,0.00,360.000000,,2013-03-16 02:51:00,
2013-03-15 19:12:00,32.0,3.0,-100.00,NNW,333,1.0,5.0,28,0.00,,,0.00,184.000000,,2013-03-16 03:12:00,
2013-03-15 19:22:00,32.0,3.0,-100.00,NNW,333,1.0,5.0,28,0.00,,,0.00,184.000000,,2013-03-16 03:22:00,
2013-03-15 19:32:00,32.0,3.0,-100.00,NNW,333,1.0,5.0,28,0.00,,,0.00,184.000000,,2013-03-16 03:32:00,
2013-03-15 19:42:00,32.0,3.0,-100.00,NNW,333,1.0,5.0,28,0.00,,,0.00,184.000000,,2013-03-16 03:42:00,
2013-03-15 19:52:00,32.0,3.0,-100.00,NNW,333,1.0,5.0,28,0.00,,,0.00,184.000000,,2013-03-16 03:52:00,
2013-03-15 20:12:00,26.0,2.0,-100.00,North,10,1.0,4.0,35,0.00,,,0.00,24.000000,,2013-03-16 04:12:00,
2013-03-15 20:22:00,26.0,2.0,-100.00,North,10,1.0,4.0,35,0.00,,,0.00,24.000000,,2013-03-16 04:22:00,
2013-03-15 20:32:00,26.0,2.0,-100.00,North,10,1.0,4.0,35,0.00,,,0.00,24.000000,,2013-03-16 04:32:00,
2013-03-15 20:42:00,26.0,2.0,-100.00,North,10,1.0,4.0,35,0.00,,,0.00,24.000000,,2013-03-16 04:42:00,
2013-03-15 20:52:00,26.0,2.0,-100.00,North,10,1.0,4.0,35,0.00,,,0.00,24.000000,,2013-03-16 04:52:00,
2013-03-15 21:12:00,24.0,2.0,-100.00,North,353,1.0,4.0,38,0.00,,,0.00,2.000000,,2013-03-16 05:12:00,
2013-03-15 21:21:00,24.0,2.0,-100.00,North,353,1.0,4.0,38,0.00,,,0.00,2.000000,,2013-03-16 05:21:00,
2013-03-15 21:32:00,24.0,2.0,-100.00,North,353,1.0,4.0,38,0.00,,,0.00,2.000000,,2013-03-16 05:32:00,
2013-03-15 21:42:00,24.0,2.0,-100.00,North,353,1.0,4.0,38,0.00,,,0.00,2.000000,,2013-03-16 05:42:00,
2013-03-15 21:51:00,24.0,2.0,-100.00,North,353,1.0,4.0,38,0.00,,,0.00,2.000000,,2013-03-16 05:51:00,
2013-03-15 22:22:00,21.0,3.0,-100.00,North,355,1.0,4.0,44,0.00,,,0.00,0.000000,,2013-03-16 06:22:00,
2013-03-15 22:32:00,21.0,3.0,-100.00,North,355,1.0,4.0,44,0.00,,,0.00,0.000000,,2013-03-16 06:32:00,
2013-03-15 22:42:00,21.0,3.0,-100.00,North,355,1.0,4.0,44,0.00,,,0.00,0.000000,,2013-03-16 06:42:00,
2013-03-15 22:51:00,21.0,3.0,-100.00,North,355,1.0,4.0,44,0.00,,,0.00,0.000000,,2013-03-16 06:51:00,
2013-03-15 23:22:00,19.0,2.0,-100.00,NNW,336,0.0,4.0,47,0.00,,,0.00,0.000000,,2013-03-16 07:22:00,
2013-03-15 23:32:00,19.0,2.0,-100.00,NNW,336,0.0,4.0,47,0.00,,,0.00,0.000000,,2013-03-16 07:32:00,
2013-03-15 23:42:00,19.0,2.0,-100.00,NNW,336,0.0,4.0,47,0.00,,,0.00,0.000000,,2013-03-16 07:42:00,
2013-03-15 23:52:00,19.0,2.0,-100.00,NNW,336,0.0,4.0,47,0.00,,,0.00,0.000000,,2013-03-16 07:52:00,